Location: Unspecified
(0.0000°N, 0.0000°E)
Time: 22:24:31
(UTC+00:00)

Transit 2A - Pass Details

Date: 01 June 2024
Orbit: 592 x 959 km, 66.7° (Epoch: 24 June)

Event Time Altitude Azimuth Distance (km) Brightness Sun altitude
Rises 18:50:36 0° 210° (SSW) 2,824 9.0 -12.2°
Reaches altitude 10° 18:52:52 10° 216° (SW) 1,920 8.2 -12.7°
Maximum altitude 18:56:59 47° 290° (WNW) 793 6.6 -13.6°
Drops below altitude 10° 19:01:15 10° 5° (N) 1,987 8.4 -14.6°
Sets 19:03:38 0° 10° (N) 2,933 9.2 -15.2°
